sat.trackr.live / text

‹ back to catalog

STARLINK-35997

NORAD 66843 · 2025-280Y

PAYLOAD ACTIVE UNKNOWN

§ Identity

Operator
Country
US
Launch date
2025-12-02
Launch site
AFWTR
Launch vehicle
Mass (kg)
RCS (m²)

Purposes: comms

External: N2YO · Heavens-Above · Gunter

§ Orbital elements

Epoch: 2026-09-20T06:28:34.949280Z

Period
96.11 min
Inclination
70.0017°
Eccentricity
0.0002269
Mean motion
14.98340122 rev/d
Perigee alt
570.4 km
Apogee alt
573.6 km
Semi-major
6,950.2 km
B*
3.5193e-4
RAAN
203.7830°
Arg perigee
277.7959°
Mean anomaly
82.2942°
Rev number
4,522

§ Raw data

STARLINK-359971 66843U 25280Y   26263.26984895  .00004110  00000+0  35193-3 0  99932 66843  70.0017 203.7830 0002269 277.7959  82.2942 14.98340122 45226

JSON: /api/v1/satellites/66843 · /tle

For live sub-satellite position, see the globe view (requires WebGL).

§ Visibility from observer

Set your observer location to see the next 7 days of passes ≥ 10°. The values pass through the URL so the page stays shareable.

No JS? Fill the form by hand. The geolocation button needs JavaScript.